Weather reports worldwide

Advertisment
Williston/Basin International, United States of America (72767): temperature & dewpoint: 07.12.2019 22:00:00 - 13.12.2019 22:00:00 (CST)Williston/Basin International, United States of America (72767): wind speed & gusts: 07.12.2019 22:00:00 - 13.12.2019 22:00:00 (CST)Williston/Basin International, United States of America (72767): wind direction: 07.12.2019 22:00:00 - 13.12.2019 22:00:00 (CST)Williston/Basin International, United States of America (72767): reduced air pressure: 07.12.2019 22:00:00 - 13.12.2019 22:00:00 (CST)Williston/Basin International, United States of America (72767): visibility: 07.12.2019 22:00:00 - 13.12.2019 22:00:00 (CST)Williston/Basin International, United States of America (72767): precipitation: 07.12.2019 22:00:00 - 13.12.2019 22:00:00 (CST)
Date & Time tt [°C] td [°C] ff [km/h] ff [kn] fx [km/h] fx [kn] dd ppp [hPa] vv [km] rr [mm]
13.12.2019 22:00:00 -19,4 -21,1 15 8 - - N 1007,1 16 -
13.12.2019 21:00:00 -18,9 -21,7 22 12 - - N 1006,9 16 -
13.12.2019 20:00:00 -18,3 -20,6 21 11 - - N 1006,9 16 -
13.12.2019 19:00:00 -17,2 -19,4 13 7 - - NNW 1006,7 16 -
13.12.2019 18:00:00 -15,6 -17,8 18 10 - - N 1006,3 16 -
13.12.2019 17:00:00 -13,9 -16,7 26 14 - - NNW 1005,4 15 -
13.12.2019 16:00:00 -13,3 -16,7 24 13 48 26 NNW 1004,8 8 -
13.12.2019 15:00:00 -12,8 -16,1 29 16 - - NNW 1003,7 16 -
13.12.2019 14:00:00 -12,2 -15,6 29 16 48 26 NNW 1003,1 15 -
13.12.2019 13:00:00 -11,7 -15,0 26 14 - - NNW 1002,8 4,0 -
13.12.2019 12:00:00 -11,7 -14,4 35 19 48 26 NW 1002,5 11 -
13.12.2019 11:00:00 -11,1 -13,9 29 16 - - N 1001,9 11 -
13.12.2019 10:00:00 -11,1 -13,9 28 15 - - N 1001,3 11 -
13.12.2019 09:00:00 -11,7 -13,9 22 12 - - NNW 1000,3 15 -
13.12.2019 08:00:00 -11,7 -14,4 28 15 57 31 NNW 999,2 11 -
13.12.2019 07:00:00 -11,1 -13,9 31 17 55 30 NNW 997,9 8 -
13.12.2019 06:00:00 -8,3 -10,6 35 19 52 28 NW 996,6 13 -
13.12.2019 05:00:00 -6,1 -7,8 24 13 - - NW 995,5 15 -
13.12.2019 04:00:00 -5,6 -7,2 29 16 52 28 NW 994,6 16 -
13.12.2019 03:00:00 -5,0 -7,2 28 15 - - NW 993,7 16 -
13.12.2019 02:00:00 -5,0 -6,7 29 16 - - NW 992,9 16 -
13.12.2019 01:00:00 -6,7 -7,8 8 4 - - W 992,7 8 -
13.12.2019 00:00:00 -6,7 -7,8 13 7 - - S 992,5 8 -
12.12.2019 23:00:00 -6,7 -8,3 15 8 - - SSE 992,8 4,8 -
12.12.2019 22:00:00 -7,2 -8,3 16 9 - - S 993,2 2,4 -
12.12.2019 21:00:00 -7,8 -9,4 21 11 - - SSE 994,2 4,0 -
12.12.2019 20:00:00 -8,3 -10,0 21 11 - - SSE 995,2 2,4 -
12.12.2019 19:00:00 -8,3 -10,6 24 13 - - SSE 995,9 2,8 -
12.12.2019 18:00:00 -8,9 -11,1 21 11 - - SSE 996,7 16 -
12.12.2019 17:00:00 -9,4 -11,1 18 10 - - SSE 997,2 13 -
12.12.2019 16:00:00 -10,0 -11,7 24 13 - - SSE 997,3 11 -
12.12.2019 15:00:00 -10,0 -12,2 21 11 - - SSE 998,2 11 -
12.12.2019 14:00:00 -10,6 -12,2 18 10 - - SSE 999,3 6 -
12.12.2019 13:00:00 -10,6 -12,8 15 8 - - S 1000,1 4,8 -
12.12.2019 12:00:00 -10,6 -12,8 13 7 - - SE 1000,9 4,8 -
12.12.2019 11:00:00 -11,1 -13,3 13 7 - - SSE 1002,1 3,2 -
12.12.2019 10:00:00 -12,2 -14,4 13 7 - - SE 1002,0 4,0 -
12.12.2019 09:00:00 -12,2 -14,4 9 5 - - SSE 1002,1 11 -
12.12.2019 08:00:00 -12,8 -15,0 13 7 - - SE 1002,1 16 -
12.12.2019 07:00:00 -12,8 -15,0 11 6 - - SSE 1002,6 16 -
12.12.2019 06:00:00 -12,8 -15,6 9 5 - - SSE 1003,1 16 -
12.12.2019 05:00:00 -12,8 -15,6 8 4 - - SE 1003,4 16 -
12.12.2019 04:00:00 -12,8 -15,6 11 6 - - ESE 1003,1 16 -
12.12.2019 03:00:00 -13,3 -15,6 11 6 - - ESE 1003,4 11 -
12.12.2019 02:00:00 -13,3 -16,1 15 8 - - ESE 1002,7 15 -
12.12.2019 01:00:00 -12,8 -15,6 9 5 - - ESE 1003,2 16 -
12.12.2019 00:00:00 -12,8 -15,6 16 9 - - SE 1003,3 8 -
11.12.2019 23:00:00 -12,8 -15,6 15 8 - - ESE 1003,5 4,0 -
11.12.2019 22:00:00 -13,3 -15,6 18 10 - - E 1003,4 4,8 -
11.12.2019 21:00:00 -12,8 -15,0 15 8 - - ESE 1003,7 4,0 -
11.12.2019 20:00:00 -13,3 -15,6 16 9 - - ESE 1003,9 4,8 -
11.12.2019 19:00:00 -12,8 -15,6 21 11 - - E 1004,3 2,4 -
11.12.2019 18:00:00 -12,8 -15,0 28 15 - - ESE 1004,1 4,8 -
11.12.2019 17:00:00 -12,8 -15,0 26 14 - - ESE 1004,2 1,2 -
11.12.2019 16:00:00 -12,8 -15,0 22 12 - - E 1004,6 0,8 -
11.12.2019 15:00:00 -13,3 -16,1 22 12 - - ESE 1005,5 16 -
11.12.2019 14:00:00 -13,9 -17,2 22 12 - - E 1005,7 16 -
11.12.2019 13:00:00 -14,4 -17,8 22 12 - - ESE 1006,8 16 -
11.12.2019 12:00:00 -15,6 -18,9 21 11 - - E 1008,0 16 -
11.12.2019 11:00:00 -17,2 -20,6 18 10 - - ENE 1009,3 16 -
11.12.2019 10:00:00 -18,3 -21,1 15 8 - - E 1009,4 16 -
11.12.2019 09:00:00 -18,9 -21,7 11 6 - - ESE 1009,7 16 -
11.12.2019 08:00:00 -19,4 -22,8 11 6 - - E 1010,1 16 -
11.12.2019 07:00:00 -20,0 -23,9 5 3 - - E 1011,0 16 -
11.12.2019 06:00:00 -20,6 -23,9 8 4 - - E 1011,0 16 -
11.12.2019 05:00:00 -20,6 -23,9 8 4 - - SE 1011,2 16 -
11.12.2019 04:00:00 -21,1 -23,9 0 0 - - N 1012,0 16 -
11.12.2019 03:00:00 -21,1 -24,4 9 5 - - NNE 1012,1 16 -
11.12.2019 02:00:00 -20,6 -24,4 9 5 - - NNE 1011,9 16 -
11.12.2019 01:00:00 -20,0 -23,3 15 8 - - N 1011,9 16 -
11.12.2019 00:00:00 -19,4 -22,8 15 8 - - N 1012,3 16 -
10.12.2019 23:00:00 -19,4 -22,8 18 10 - - N 1011,8 16 -
10.12.2019 22:00:00 -18,9 -21,7 22 12 - - N 1011,2 16 -
10.12.2019 21:00:00 -17,8 -20,0 18 10 - - NNW 1010,7 16 -
10.12.2019 20:00:00 -17,8 -20,0 13 7 - - NNW 1009,9 16 -
10.12.2019 19:00:00 -17,2 -19,4 16 9 - - NNW 1008,9 16 -
10.12.2019 18:00:00 -17,2 -19,4 13 7 - - NNW 1008,3 16 -
10.12.2019 17:00:00 -13,3 -16,1 13 7 - - NW 1006,9 16 0,0
10.12.2019 16:00:00 -13,3 -15,6 11 6 - - WNW 1006,1 16 0,0
10.12.2019 15:00:00 -13,9 -16,1 13 7 - - WSW 1005,9 16 -
10.12.2019 14:00:00 -15,0 -17,2 9 5 - - SSW 1006,1 16 -
10.12.2019 13:00:00 -16,1 -18,3 15 8 - - SW 1006,7 10 -
10.12.2019 12:00:00 -17,8 -20,0 15 8 - - WSW 1007,4 15 -
10.12.2019 11:00:00 -20,0 -22,2 13 7 - - SW 1008,5 16 -
10.12.2019 10:00:00 -23,9 -25,6 13 7 - - WSW 1008,8 16 -
10.12.2019 09:00:00 -25,6 -27,8 16 9 - - WSW 1009,3 15 -
10.12.2019 08:00:00 -26,7 -28,9 16 9 - - SW 1009,8 16 -
10.12.2019 07:00:00 -25,0 -27,2 15 8 - - WSW 1009,8 16 -
10.12.2019 06:00:00 -25,0 -26,7 15 8 - - W 1010,5 16 -
10.12.2019 05:00:00 -25,6 -27,8 18 10 - - W 1011,5 16 -
10.12.2019 04:00:00 -25,0 -27,8 21 11 - - WNW 1011,7 16 -
10.12.2019 03:00:00 -25,0 -27,8 18 10 - - WNW 1011,7 16 -
10.12.2019 02:00:00 -25,6 -27,8 13 7 - - WNW 1011,5 16 -
10.12.2019 01:00:00 -25,6 -27,2 15 8 - - WNW 1011,3 11 -
10.12.2019 00:00:00 -22,2 -24,4 18 10 - - NNW 1010,5 16 -
09.12.2019 23:00:00 -20,0 -22,8 28 15 57 31 N 1009,7 10 -
09.12.2019 22:00:00 -18,9 -21,7 35 19 55 30 NNW 1009,1 15 -
09.12.2019 21:00:00 -17,8 -20,6 31 17 61 33 NNW 1007,8 10 -
09.12.2019 20:00:00 -16,7 -20,0 31 17 59 32 NNW 1007,2 16 -
09.12.2019 19:00:00 -15,6 -18,9 34 18 63 34 NNW 1005,7 16 -
09.12.2019 18:00:00 -15,0 -17,8 28 15 55 30 NNW 1004,9 16 -
09.12.2019 17:00:00 -13,3 -17,2 37 20 68 37 NW 1003,8 13 0,0
09.12.2019 16:00:00 -11,1 -14,4 35 19 59 32 NW 1002,2 8 0,0
09.12.2019 15:00:00 -10,0 -13,3 41 22 68 37 NW 1001,0 4,8 0,0
09.12.2019 14:00:00 -9,4 -12,8 35 19 61 33 NNW 1000,1 4,8 0,0
09.12.2019 13:00:00 -8,9 -11,7 35 19 61 33 NW 999,9 4,0 0,0
09.12.2019 12:00:00 -10,6 -12,8 28 15 52 28 WNW 999,7 16 -
09.12.2019 11:00:00 -11,7 -13,9 24 13 - - W 999,7 16 0,0
09.12.2019 10:00:00 -12,8 -15,0 24 13 - - WSW 999,2 16 -
09.12.2019 09:00:00 -13,9 -16,1 22 12 - - WSW 999,4 16 -
09.12.2019 08:00:00 -14,4 -16,1 21 11 - - WSW 1000,5 15 -
09.12.2019 07:00:00 -16,1 -17,8 21 11 - - WSW 1000,8 16 -
09.12.2019 06:00:00 -16,1 -18,3 22 12 - - WSW 1001,6 16 -
09.12.2019 05:00:00 -17,8 -20,0 16 9 - - WSW 1002,7 16 -
09.12.2019 04:00:00 -18,3 -20,6 16 9 - - SW 1003,5 16 -
09.12.2019 03:00:00 -22,2 -24,4 18 10 - - WSW 1004,8 16 -
09.12.2019 02:00:00 -21,7 -23,3 9 5 - - WSW 1005,4 16 -
09.12.2019 01:00:00 -21,7 -23,3 18 10 - - W 1006,1 16 -
09.12.2019 00:00:00 -20,6 -22,8 18 10 - - W 1006,7 16 -
08.12.2019 23:00:00 -21,1 -22,8 13 7 - - WNW 1006,6 16 -
08.12.2019 22:00:00 -18,3 -21,1 5 3 - - WNW 1005,8 16 -
08.12.2019 21:00:00 -17,8 -20,0 16 9 - - N 1005,8 10 0,0
08.12.2019 20:00:00 -17,8 -20,0 15 8 - - N 1005,4 16 -
08.12.2019 19:00:00 -18,3 -20,0 16 9 - - N 1004,8 16 0,0
08.12.2019 18:00:00 -16,7 -18,9 18 10 - - N 1004,0 8 0,0
08.12.2019 17:00:00 -16,1 -18,3 24 13 - - NNE 1002,2 6 0,0
08.12.2019 16:00:00 -15,6 -17,8 28 15 - - NNE 1001,1 1,6 0,0
08.12.2019 15:00:00 -14,4 -16,7 28 15 - - NNE 1000,3 1,6 0,0
08.12.2019 14:00:00 -13,9 -16,1 28 15 - - NE 999,4 1,2 0,0
08.12.2019 13:00:00 -13,3 -15,0 28 15 - - NE 999,4 0,8 0,0
08.12.2019 12:00:00 -12,2 -15,0 29 16 - - NE 999,3 1,2 0,0
08.12.2019 11:00:00 -12,2 -13,9 24 13 - - NE 998,3 0,4 0,0
08.12.2019 10:00:00 -11,1 -12,8 24 13 54 29 NE 997,4 1,2 0,0
08.12.2019 09:00:00 -10,0 -12,2 31 17 - - ENE 996,6 1,6 0,0
08.12.2019 08:00:00 -9,4 -12,2 31 17 55 30 ENE 996,3 8 0,0
08.12.2019 07:00:00 -9,4 -11,1 31 17 48 26 NE 996,1 4,8 0,0
08.12.2019 06:00:00 -7,8 -9,4 34 18 - - NE 995,5 6 0,0
08.12.2019 05:00:00 -6,7 -8,3 28 15 - - ENE 995,3 8 0,0
08.12.2019 04:00:00 -5,0 -6,1 26 14 - - ENE 995,1 2,8 0,3
08.12.2019 03:00:00 -4,4 -5,6 24 13 - - NE 994,6 4,8 0,0
08.12.2019 02:00:00 -4,4 -5,6 21 11 - - NNE 994,4 3,2 0,0
08.12.2019 01:00:00 -4,4 -5,6 24 13 - - NNE 994,2 4,0 0,0
08.12.2019 00:00:00 -2,8 -3,3 24 13 - - N 993,6 0,8 -
07.12.2019 23:00:00 -2,2 -3,3 24 13 - - N 992,9 2,4 -
07.12.2019 22:00:00 -1,1 -2,8 29 16 - - N 992,4 13 -

tt = temperature
td = dewpoint
ff = wind speed
fx = gusts
dd = wind direction
ppp = reduced air pressure
vv = visibility
rr = precipitation

Next stations